{"data":{"norad_id":67756,"epoch":"2026-09-19T19:00:57.898656Z","epoch_age_seconds":79382,"freshness":"FRESH","line1":"1 67756U 26028A   26262.79233679  .00000000  00000+0  00000+0 0  9991","line2":"2 67756   0.0065  30.1749 0001650 141.1633 188.6646  1.00269938  2198","mean_motion":1.00269938,"eccentricity":0.000165,"inclination_deg":0.0065,"raan_deg":30.1749,"arg_perigee_deg":141.1633,"mean_anomaly_deg":188.6646,"bstar":0,"rev_number":219,"period_min":1436.1233573317,"perigee_km":35780.155484078,"apogee_km":35794.070016496,"semimajor_km":42165.249750287,"source":"CELESTRAK","updated_at":"2026-09-20T09:00:35.348657Z"}}